DAL2227 KJFK-KATL

Flight info

Callsign DAL2227
Flight time N/A
Altitude 36000
Route RBV Q430 BYRDD J48 MOL FLASK OZZZI2
Aircraft A321/M-SDE3FGHIRWY/LB1

Departure

Time N/A
Airport John F. Kennedy International Airport (KJFK)

Arrival

Time 2026-05-05 00:16
Airport Hartsfield Jackson Atlanta International Airport (KATL)
Time Latitude Longitude Altitude Speed Heading
2026-05-04 23:56 34.80496 -83.03649 35563 ft 425 kts 227°
2026-05-04 23:56 34.78350 -83.06124 34896 ft 425 kts 227°
2026-05-04 23:56 34.76203 -83.08601 34195 ft 426 kts 227°
2026-05-04 23:57 34.74051 -83.11087 33424 ft 427 kts 226°
2026-05-04 23:57 34.71894 -83.13580 32664 ft 428 kts 226°
2026-05-04 23:57 34.69729 -83.16079 31910 ft 431 kts 226°
2026-05-04 23:57 34.67572 -83.18564 31189 ft 434 kts 226°
2026-05-04 23:58 34.65370 -83.21095 30483 ft 437 kts 226°
2026-05-04 23:58 34.63124 -83.23672 29702 ft 440 kts 226°
2026-05-04 23:58 34.60923 -83.26194 28900 ft 442 kts 226°
2026-05-04 23:58 34.58681 -83.28760 28112 ft 444 kts 226°
2026-05-04 23:59 34.56427 -83.31339 27333 ft 446 kts 226°
2026-05-04 23:59 34.54162 -83.33934 26592 ft 448 kts 226°
2026-05-04 23:59 34.51894 -83.36543 25872 ft 451 kts 226°
2026-05-04 23:59 34.49623 -83.39164 25154 ft 453 kts 226°
2026-05-05 00:00 34.47333 -83.41802 24461 ft 455 kts 226°
2026-05-05 00:00 34.46560 -83.42689 24225 ft 456 kts 226°
2026-05-05 00:00 34.42734 -83.47071 23030 ft 453 kts 226°
2026-05-05 00:00 34.40456 -83.49679 22252 ft 448 kts 226°
2026-05-05 00:01 34.38204 -83.52261 21478 ft 443 kts 226°
2026-05-05 00:01 34.35976 -83.54815 20711 ft 439 kts 225°
2026-05-05 00:01 34.33763 -83.57346 19959 ft 435 kts 225°
2026-05-05 00:01 34.31575 -83.59841 19245 ft 430 kts 225°
2026-05-05 00:02 34.29405 -83.62311 18540 ft 426 kts 225°
2026-05-05 00:02 34.27239 -83.64738 17770 ft 422 kts 224°
2026-05-05 00:02 34.25059 -83.67093 16992 ft 418 kts 223°
2026-05-05 00:02 34.22876 -83.69398 16225 ft 415 kts 222°
2026-05-05 00:03 34.20702 -83.71671 15480 ft 411 kts 222°
2026-05-05 00:03 34.18548 -83.73923 14743 ft 408 kts 222°
2026-05-05 00:03 34.16416 -83.76164 14033 ft 405 kts 222°
2026-05-05 00:03 34.14303 -83.78395 13282 ft 402 kts 222°
2026-05-05 00:04 34.12210 -83.80606 12497 ft 399 kts 221°
2026-05-05 00:04 34.10136 -83.82796 11942 ft 389 kts 222°
2026-05-05 00:04 34.08155 -83.84902 11817 ft 371 kts 222°
2026-05-05 00:04 34.06271 -83.86930 11693 ft 355 kts 222°
2026-05-05 00:05 34.04471 -83.88880 11566 ft 340 kts 222°
2026-05-05 00:05 34.02748 -83.90747 11445 ft 326 kts 222°
2026-05-05 00:05 34.01094 -83.92531 11277 ft 311 kts 222°
2026-05-05 00:05 33.99508 -83.94232 10993 ft 300 kts 222°
2026-05-05 00:06 33.97864 -83.95716 10748 ft 293 kts 209°
2026-05-05 00:06 33.95970 -83.96555 10506 ft 289 kts 192°
2026-05-05 00:06 33.93984 -83.96695 10264 ft 286 kts 179°
2026-05-05 00:06 33.92004 -83.96599 10045 ft 284 kts 179°
2026-05-05 00:07 33.90035 -83.96512 9787 ft 282 kts 180°
2026-05-05 00:07 33.88080 -83.96433 9524 ft 281 kts 180°
2026-05-05 00:07 33.86130 -83.96356 9262 ft 280 kts 180°
2026-05-05 00:07 33.84185 -83.96276 9009 ft 279 kts 180°
2026-05-05 00:08 33.82253 -83.96195 8747 ft 278 kts 180°
2026-05-05 00:08 33.80326 -83.96113 8490 ft 276 kts 179°
2026-05-05 00:08 33.78450 -83.96217 8229 ft 273 kts 194°
2026-05-05 00:08 33.76733 -83.97124 7981 ft 271 kts 217°
2026-05-05 00:09 33.75407 -83.98716 7738 ft 271 kts 229°
2026-05-05 00:09 33.74165 -84.00420 7489 ft 270 kts 228°
2026-05-05 00:09 33.72925 -84.02109 7245 ft 269 kts 228°
2026-05-05 00:09 33.71690 -84.03788 6999 ft 266 kts 228°
2026-05-05 00:10 33.70483 -84.05431 6750 ft 259 kts 228°
2026-05-05 00:10 33.69308 -84.07039 6515 ft 254 kts 227°
2026-05-05 00:10 33.68152 -84.08622 6215 ft 251 kts 227°
2026-05-05 00:10 33.67006 -84.10188 5904 ft 248 kts 227°
2026-05-05 00:11 33.65904 -84.11769 5604 ft 246 kts 234°
2026-05-05 00:11 33.65163 -84.13605 5292 ft 245 kts 251°
2026-05-05 00:11 33.64922 -84.15602 5042 ft 239 kts 267°
2026-05-05 00:11 33.64914 -84.17577 4716 ft 234 kts 267°
2026-05-05 00:12 33.64917 -84.19497 4426 ft 227 kts 268°
2026-05-05 00:12 33.64934 -84.21376 4177 ft 223 kts 267°
2026-05-05 00:12 33.64921 -84.23199 3969 ft 215 kts 267°
2026-05-05 00:12 33.64942 -84.24928 3895 ft 199 kts 267°
2026-05-05 00:13 33.64958 -84.26535 3737 ft 187 kts 265°
2026-05-05 00:13 33.64941 -84.28056 3632 ft 180 kts 265°
2026-05-05 00:13 33.64925 -84.29555 3378 ft 179 kts 266°
2026-05-05 00:13 33.64965 -84.31044 3092 ft 178 kts 270°
2026-05-05 00:14 33.65015 -84.32472 2785 ft 164 kts 267°
2026-05-05 00:14 33.64982 -84.33792 2427 ft 155 kts 260°
2026-05-05 00:14 33.64940 -84.35055 2098 ft 149 kts 268°
2026-05-05 00:14 33.64955 -84.36264 1788 ft 142 kts 268°
2026-05-05 00:15 33.64952 -84.37439 1560 ft 139 kts 267°
2026-05-05 00:15 33.64956 -84.38635 1435 ft 145 kts 268°
2026-05-05 00:15 33.64953 -84.39838 1240 ft 147 kts 267°
2026-05-05 00:15 33.64956 -84.41086 1037 ft 149 kts 267°
2026-05-05 00:16 33.64954 -84.42221 1007 ft 117 kts 269°
2026-05-05 00:16 33.64954 -84.42960 1006 ft 62 kts 270°
2026-05-05 00:16 33.64915 -84.43215 1007 ft 27 kts 244°
2026-05-05 00:16 33.64852 -84.43367 1006 ft 17 kts 253°
2026-05-05 00:17 33.64840 -84.43499 1007 ft 13 kts 255°
2026-05-05 00:17 33.64771 -84.43565 1007 ft 13 kts 211°
2026-05-05 00:17 33.64694 -84.43619 1006 ft 13 kts 210°
2026-05-05 00:17 33.64614 -84.43673 1006 ft 13 kts 208°
2026-05-05 00:18 33.64532 -84.43714 1006 ft 13 kts 198°
2026-05-05 00:18 33.64456 -84.43769 1006 ft 13 kts 208°
2026-05-05 00:18 33.64371 -84.43789 1006 ft 13 kts 182°
2026-05-05 00:18 33.64313 -84.43786 1006 ft 13 kts 178°
2026-05-05 00:19 33.64225 -84.43785 1006 ft 13 kts 180°
2026-05-05 00:19 33.64138 -84.43787 1006 ft 13 kts 181°
2026-05-05 00:19 33.64051 -84.43787 1006 ft 13 kts 177°
2026-05-05 00:19 33.63964 -84.43787 1006 ft 12 kts 180°
2026-05-05 00:20 33.63877 -84.43788 1006 ft 12 kts 180°
2026-05-05 00:20 33.63791 -84.43786 1006 ft 11 kts 179°
2026-05-05 00:20 33.63752 -84.43800 1006 ft 4 kts 247°
2026-05-05 00:20 33.63756 -84.43831 1006 ft 3 kts 283°
2026-05-05 00:21 33.63761 -84.43855 1006 ft 3 kts 284°
2026-05-05 00:21 33.63764 -84.43871 1006 ft 0 kts 284°